Flag for Canada Weather past 2 weeks in Happy Valley-Goose Bay, Newfoundland and Labrador, Canada

Now
66 °F

Scattered clouds.


Feels Like: 66 °F
Forecast: 60 / 75 °F
Wind: No wind

Location: Goose

Current Time: Jul 10, 2014 at 9:24:12 AM

Latest Report: Jul 10, 2014 at 9:00 AM


Visibility: 15 mi

Pressure: 29.69 "Hg

Humidity: 83%

Dew point: 61 °F

Location of Happy Valley-Goose BayLocation

Historic Weather in Happy Valley-Goose Bay — Graph

°F

Happy Valley-Goose Bay temperature yesterday

Maximum temperature yesterday: 61 °F (at 2:00 PM)
Minimum temperature yesterday: 54 °F (at 5:00 AM)
Average temperature yesterday: 56 °F

Past Weeks' High & Low Weather Summary

 TemperatureHumidityPressure
High91 °F (Jun 28, 3:00 PM)94% (Jul 1, 4:00 AM)30.03 "Hg (Jul 1, 4:00 AM)
Low45 °F (Jul 7, 12:00 AM)18% (Jun 28, 3:00 PM)29.33 "Hg (Jul 6, 9:00 PM)
Average64 °F59%29.74 "Hg
* Reported Jun 25 8:00 AM — Jul 10 8:00 AM, Happy Valley-Goose Bay, Weather by CustomWeather, © 2014

Note: Actual official high and low records may vary slightly from our data, if they occured in-between our weather recording intervals... More about our weather records

Advertising

Happy Valley-Goose Bay weather history for previous 24 hours

 ConditionsComfort  
Time TempWeatherWind HumidityBarometerVisibility
8:00 AM
Jul 10
61 °FPassing clouds.2 mph83%29.70 "Hg15 mi
7:00 AM55 °FPassing clouds.2 mph88%29.72 "Hg10 mi
6:00 AM50 °FFog.No wind94%29.71 "Hg5 mi
5:04 AMN/AFog.2 mphN/AN/A0 mi
4:47 AMN/AFog.No windN/AN/A1 mi
4:00 AM52 °FFog.No wind94%29.69 "Hg0 mi
3:00 AM54 °FFog.3 mph94%29.69 "Hg1 mi
2:00 AM54 °FFog.2 mph94%29.67 "Hg1 mi
1:00 AM54 °FMostly cloudy.3 mph94%29.67 "Hg15 mi
12:00 AM54 °FMostly cloudy.5 mph94%29.67 "Hg15 mi
11:00 PM
Jul 9
54 °FLow clouds.5 mph94%29.67 "Hg8 mi
10:00 PM54 °FDrizzle. Fog.9 mph94%29.67 "Hg4 mi
9:00 PM55 °FDrizzle. Fog.9 mph88%29.67 "Hg4 mi
8:00 PM54 °FSprinkles. Fog.15 mph94%29.67 "Hg5 mi
7:00 PM55 °FSprinkles. Fog.14 mph88%29.67 "Hg4 mi
6:00 PM55 °FSprinkles. Fog.21 mph88%29.67 "Hg6 mi
5:00 PM55 °FSprinkles. Mostly cloudy.18 mph88%29.71 "Hg7 mi
4:00 PM55 °FSprinkles. More clouds than sun.16 mph88%29.72 "Hg10 mi
3:00 PM59 °FSprinkles. Mostly cloudy.16 mph82%29.75 "Hg15 mi
2:00 PM61 °FMostly cloudy.12 mph77%29.76 "Hg15 mi
1:00 PM59 °FCloudy.13 mph77%29.79 "Hg15 mi
12:00 PM59 °FMore clouds than sun.10 mph77%29.80 "Hg15 mi
10:00 AM57 °FBroken clouds.9 mph77%29.80 "Hg15 mi
9:00 AM57 °FBroken clouds.10 mph77%29.79 "Hg15 mi
Weather by CustomWeather, © 2014

See weather overviewHow to use our weather pages